This is the latest recevied weather packets stored in our database for station/object WB5LJZ-5. If no packets are shown the sender has not sent any weather packets the latest 10 day(s).
| Time | Temp. | Humidity | Pressure | Rain* | Wind** | Luminosity | Snow |
|---|---|---|---|---|---|---|---|
| 1777679333 | 17.22° C | - | - | 0 mm | 6.71 m/s, 3° | - | - |
| 1777678697 | 17.22° C | - | - | 0 mm | 7.15 m/s, 4° | - | - |
| 1777678062 | 17.22° C | - | - | 0 mm | 8.49 m/s, 349° | - | - |
| 1777677426 | 17.22° C | - | - | 0 mm | 5.36 m/s, 307° | - | - |
| 1777676790 | 18.33° C | - | - | 0 mm | 6.71 m/s, 8° | - | - |
| 1777676154 | 18.89° C | - | - | 0 mm | 6.26 m/s, 23° | - | - |
| 1777675519 | 18.33° C | - | - | 0 mm | 5.81 m/s, 343° | - | - |
| 1777674883 | 18.33° C | - | - | 0 mm | 5.36 m/s, 308° | - | - |
| 1777674249 | 17.78° C | - | - | 0 mm | 5.36 m/s, 8° | - | - |
| 1777673612 | 17.78° C | - | - | 0 mm | 4.92 m/s, 333° | - | - |
| 1777672976 | 17.78° C | - | - | 0 mm | 5.81 m/s, 343° | - | - |
| 1777672340 | 18.33° C | - | - | 0 mm | 4.02 m/s, 6° | - | - |
| 1777671704 | 18.33° C | - | - | 1.02 mm | 5.81 m/s, 359° | - | - |
| 1777671069 | 17.78° C | - | - | 1.02 mm | 5.81 m/s, 354° | - | - |
| 1777670433 | 18.33° C | - | - | 1.02 mm | 5.81 m/s, 352° | - | - |
| 1777669797 | 18.33° C | - | - | 1.02 mm | 2.24 m/s, 328° | - | - |
| 1777669161 | 18.33° C | - | - | 1.02 mm | 6.26 m/s, 0° | - | - |
| 1777668525 | 18.33° C | - | - | 1.02 mm | 5.36 m/s, 281° | - | - |
| 1777667890 | 18.33° C | - | - | 0.51 mm | 4.02 m/s, 301° | - | - |
| 1777667254 | 18.33° C | - | - | 0.51 mm | 0.89 m/s, 0° | - | - |
| 1777666618 | 18.33° C | - | - | 0.51 mm | 3.13 m/s, 359° | - | - |
| 1777665982 | 18.33° C | - | - | 0.51 mm | 0.89 m/s, 345° | - | - |
| 1777665347 | 18.89° C | - | - | 0.51 mm | 3.58 m/s, 338° | - | - |
| 1777664711 | 18.89° C | - | - | 0.51 mm | 3.58 m/s, 326° | - | - |
| 1777664075 | 18.89° C | - | - | 0.25 mm | 3.58 m/s, 326° | - | - |
* Rain latest hour (hover to see other rain measurements)
** Current wind speed in m/s (hover to see current wind gust speed)